[[{"header":{"parameterUnit":"m.s-1","parameterCategory":1,"la1":30.2991,"la2":30.254,"lo1":-89.0895,"lo2":-89.0444,"dy":0.0017,"dx":0.0017,"nx":28,"ny":28,"refTime":"2025-06-11T03:00:00:Z","depth":0,"parameterNumber":2,"parameterNumberName":"U-component_of_WINDS"},"data":[0,0,0,0,0,0,0,0,0,0,0,0,0,0,0,0,0,0,0,0,0,0,0,0,0,0,0,0,0,0,0,0,0,0,0,0,0,0,0,0,0,0,0,0,0,0,0,0,0,0,0,0,0,0,0,0,0,0,-0.1151,-0.1149,0,-0.1049,-0.1048,-0.1046,-0.0989,-0.0989,-0.0989,-0.0989,-0.0887,-0.0885,-0.0882,0,0,0,0,0,0,0,0,0,0,0,0,0,-0.1299,-0.1297,-0.1151,-0.1149,-0.1148,-0.1049,-0.1048,-0.1046,-0.099,-0.0989,-0.0989,-0.0989,-0.0888,-0.0885,-0.0882,0,0,0,0,0,0,0,0,0,0,0,0,0,-0.122,-0.1296,-0.1151,-0.1108,-0.1103,-0.1049,-0.1047,-0.1046,-0.099,-0.0989,-0.0989,-0.0989,-0.0889,-0.0885,-0.0881,-0.0863,0,0,-0.087,-0.0868,0,0,0,0,0,0,0,0,-0.1224,-0.1214,-0.1115,-0.1111,-0.1105,-0.1031,-0.1062,-0.0985,-0.099,-0.1033,-0.0989,-0.0989,-0.0936,-0.0928,-0.0909,-0.0859,-0.0854,-0.0869,-0.0867,-0.0866,-0.0864,0,0,0,0,0,0,0,-0.123,-0.1219,-0.111,-0.1114,-0.1108,-0.1095,-0.1083,-0.1047,-0.0987,-0.1029,-0.1025,-0.1013,-0.0933,-0.0913,-0.0907,-0.0853,-0.087,-0.0866,-0.0864,-0.0862,-0.0783,-0.0784,0,0,0,0,0,0,-0.1242,-0.1224,-0.1114,-0.1107,-0.1165,-0.1092,-0.1079,-0.1055,-0.0987,-0.0976,-0.1013,-0.1011,-0.092,-0.0911,-0.0903,-0.0878,-0.0866,-0.0862,-0.086,-0.0783,-0.0783,-0.0784,0,0,0,0,0,0,-0.1245,-0.1233,-0.1118,-0.1164,-0.1148,-0.109,-0.1064,-0.1054,-0.1034,-0.0975,-0.0965,-0.1005,-0.0919,-0.0908,-0.0874,-0.0874,-0.086,-0.0857,-0.0783,-0.0783,-0.0784,-0.0828,0,0,0,0,0,0,-0.125,-0.1234,-0.1226,-0.1164,-0.1146,-0.109,-0.1064,-0.1052,-0.1027,-0.1023,-0.0964,-0.0954,-0.0918,-0.088,-0.087,-0.0868,-0.0854,-0.0783,-0.0783,-0.0783,-0.0826,-0.083,-0.0833,0,0,0,0,0,-0.1255,-0.1243,-0.1226,-0.1213,-0.1135,-0.109,-0.1079,-0.1037,-0.1028,-0.1019,-0.0982,-0.0956,-0.0875,-0.0877,-0.0865,-0.0862,-0.0783,-0.0783,-0.0783,-0.0825,-0.0829,-0.0832,0,0,0,0,0,0,-0.1307,-0.1234,-0.1214,-0.1181,-0.1142,-0.108,-0.1068,-0.1043,-0.1006,-0.1004,-0.0954,-0.0942,-0.0912,-0.0884,-0.0887,-0.0842,-0.0826,-0.0824,-0.0862,-0.0865,-0.0868,-0.0876,-0.0851,0,0,0,0,0,-0.1314,-0.1283,-0.1221,-0.1198,-0.1179,-0.1127,-0.1106,-0.1077,-0.1035,-0.1018,-0.0978,-0.0939,-0.0905,-0.0883,-0.0848,-0.0822,-0.0809,-0.0814,-0.0817,-0.082,-0.0819,-0.0804,-0.0806,-0.0785,-0.0785,-0.0785,0,0,-0.1329,-0.1285,-0.1269,-0.1207,-0.1173,-0.1143,-0.1114,-0.1083,-0.106,-0.1014,-0.0979,-0.0948,-0.0901,-0.0871,-0.0856,-0.0846,-0.0823,-0.0821,-0.0824,-0.0821,-0.0805,-0.0807,-0.0809,-0.0785,-0.0785,-0.0785,0,0,-0.1341,-0.1305,-0.1282,-0.1248,-0.1197,-0.1163,-0.1158,-0.11,-0.1077,-0.1041,-0.1006,-0.0979,-0.0921,-0.0889,-0.0865,-0.0867,-0.0842,-0.0857,-0.0874,-0.086,-0.0861,-0.0863,-0.0864,-0.0865,-0.0856,-0.0856,-0.0856,0,-0.1367,-0.1318,-0.1273,-0.1244,-0.1219,-0.1175,-0.1152,-0.1122,-0.1063,-0.1047,-0.1037,-0.0964,-0.0929,-0.0891,-0.0892,-0.0873,-0.0867,-0.0863,-0.0865,-0.0865,-0.0866,-0.0867,-0.0867,-0.0858,-0.0858,-0.0858,-0.0858,0,-0.1353,-0.132,-0.1308,-0.1251,-0.1224,-0.1199,-0.1151,-0.1129,-0.1103,-0.107,-0.1035,-0.0992,-0.0948,-0.0937,-0.0911,-0.0896,-0.0892,-0.0874,-0.0857,-0.0871,-0.0871,-0.0871,-0.0861,-0.0861,-0.086,-0.0859,0,0,-0.1394,-0.1313,-0.1309,-0.1283,-0.1224,-0.1199,-0.1172,-0.1128,-0.1111,-0.1072,-0.1049,-0.1001,-0.0985,-0.0958,-0.0928,-0.0916,-0.0921,-0.09,-0.0898,-0.0906,-0.0903,-0.0917,-0.0918,-0.0904,-0.0904,-0.0904,-0.0907,0,-0.1398,-0.1346,-0.1305,-0.127,-0.124,-0.1198,-0.1175,-0.1137,-0.1106,-0.1077,-0.1043,-0.101,-0.099,-0.0974,-0.096,-0.0924,-0.092,-0.0923,-0.0884,-0.0883,-0.0897,-0.0918,-0.0933,-0.0938,-0.0907,-0.0907,-0.0907,0,-0.1396,-0.1358,-0.1319,-0.1264,-0.125,-0.1229,-0.1187,-0.1159,-0.1116,-0.1094,-0.1065,-0.1034,-0.1005,-0.0991,-0.0951,-0.0954,-0.0936,-0.0916,-0.0915,-0.091,-0.0896,-0.0915,-0.0938,-0.094,-0.0906,-0.0906,-0.0906,0,-0.1431,-0.137,-0.1339,-0.1318,-0.1253,-0.124,-0.1212,-0.1168,-0.1145,-0.1109,-0.1093,-0.1054,-0.1033,-0.1003,-0.0964,-0.0957,-0.0928,-0.0911,-0.0911,-0.0912,-0.0907,-0.0908,-0.0929,-0.0894,-0.0894,-0.0894,-0.0894,0,-0.144,-0.1418,-0.1354,-0.1335,-0.131,-0.1264,-0.1241,-0.1209,-0.1171,-0.1146,-0.1108,-0.1086,-0.1034,-0.1007,-0.0975,-0.0948,-0.0938,-0.0921,-0.0913,-0.0925,-0.0927,-0.0912,-0.0911,-0.0894,-0.0894,-0.0894,-0.0894,0,-0.1475,-0.1431,-0.1395,-0.1336,-0.1321,-0.1305,-0.1255,-0.1236,-0.1203,-0.1173,-0.1163,-0.1111,-0.1077,-0.1034,-0.0985,-0.0965,-0.0941,-0.0928,-0.0955,-0.0951,-0.0953,-0.0954,-0.0966,-0.0966,-0.0931,-0.0931,-0.0932,0,-0.1484,-0.1466,-0.1406,-0.1386,-0.1359,-0.1328,-0.1304,-0.1259,-0.1236,-0.1185,-0.1173,-0.1135,-0.1102,-0.1049,-0.1008,-0.0971,-0.0958,-0.0965,-0.0952,-0.0965,-0.0959,-0.0961,-0.096,-0.0968,-0.0969,-0.097,-0.097,0,-0.1505,-0.1484,-0.1451,-0.141,-0.1383,-0.1349,-0.1313,-0.13,-0.1247,-0.1223,-0.1187,-0.1162,-0.1112,-0.1076,-0.1034,-0.1007,-0.098,-0.0974,-0.0972,-0.0984,-0.1001,-0.0993,-0.0965,-0.0974,-0.0974,-0.0973,-0.0973,-0.0973,-0.1528,-0.1511,-0.1465,-0.143,-0.1398,-0.1366,-0.1345,-0.131,-0.1279,-0.1234,-0.1209,-0.1174,-0.1133,-0.1074,-0.1047,-0.102,-0.101,-0.1008,-0.1007,-0.1007,-0.1011,-0.1005,-0.1012,-0.1012,-0.1012,-0.1012,-0.1012,0,-0.1548,-0.1517,-0.1485,-0.1436,-0.1408,-0.1385,-0.1345,-0.1323,-0.1293,-0.1256,-0.1224,-0.1183,-0.1148,-0.1105,-0.1067,-0.1053,-0.104,-0.1045,-0.1046,-0.1041,-0.1022,-0.1027,-0.1056,-0.1056,-0.1056,-0.1056,-0.1056,-0.1056,-0.1555,-0.1525,-0.1499,-0.1453,-0.1423,-0.1387,-0.1367,-0.1337,-0.1308,-0.1263,-0.1234,-0.1205,-0.1166,-0.1125,-0.1092,-0.108,-0.1069,-0.1077,-0.1062,-0.1046,-0.1042,-0.1038,-0.1043,-0.1075,-0.1075,-0.1083,-0.1084,-0.1084]},{"header":{"parameterUnit":"m.s-1","parameterCategory":1,"la1":30.2991,"la2":30.254,"lo1":-89.0895,"lo2":-89.0444,"dy":0.0017,"dx":0.0017,"nx":28,"ny":28,"refTime":"2025-06-11T03:00:00:Z","depth":0,"parameterNumber":3,"parameterNumberName":"V-component_of_WINDS"},"data":[0,0,0,0,0,0,0,0,0,0,0,0,0,0,0,0,0,0,0,0,0,0,0,0,0,0,0,0,0,0,0,0,0,0,0,0,0,0,0,0,0,0,0,0,0,0,0,0,0,0,0,0,0,0,0,0,0,0,2.9156,2.9156,0,2.9143,2.9143,2.9143,2.9096,2.9095,2.9094,2.9093,2.908,2.908,2.9081,0,0,0,0,0,0,0,0,0,0,0,0,0,2.9142,2.9142,2.9156,2.9156,2.9156,2.9143,2.9143,2.9143,2.9096,2.9095,2.9094,2.9092,2.908,2.908,2.9081,0,0,0,0,0,0,0,0,0,0,0,0,0,2.914,2.9142,2.9156,2.9131,2.9129,2.9143,2.9143,2.9143,2.9097,2.9095,2.9093,2.9092,2.9079,2.908,2.9081,2.9119,0,0,2.9084,2.9084,0,0,0,0,0,0,0,0,2.914,2.9141,2.9135,2.9133,2.913,2.912,2.9133,2.9135,2.9097,2.9109,2.9093,2.9091,2.9094,2.9094,2.9095,2.9118,2.9118,2.9084,2.9085,2.9085,2.9085,0,0,0,0,0,0,0,2.9141,2.9141,2.9151,2.9135,2.9132,2.9121,2.9119,2.9133,2.9111,2.9108,2.9104,2.9103,2.9093,2.9094,2.9094,2.9117,2.9084,2.9085,2.9086,2.9086,2.9169,2.9171,0,0,0,0,0,0,2.9144,2.9142,2.9152,2.9151,2.9132,2.9122,2.912,2.9125,2.911,2.9107,2.9105,2.9101,2.9093,2.9093,2.9094,2.9135,2.9085,2.9086,2.9087,2.9168,2.917,2.9171,0,0,0,0,0,0,2.9144,2.9146,2.9152,2.9145,2.9145,2.9124,2.913,2.9125,2.9126,2.9108,2.9104,2.911,2.9092,2.9092,2.9112,2.9134,2.9086,2.9087,2.9166,2.9168,2.9171,2.922,0,0,0,0,0,0,2.9144,2.9146,2.916,2.9146,2.9146,2.9171,2.9131,2.9126,2.9128,2.9124,2.9112,2.9109,2.9091,2.9111,2.9113,2.9135,2.9088,2.9164,2.9167,2.917,2.9216,2.9224,2.923,0,0,0,0,0,2.9144,2.9175,2.9161,2.9162,2.9163,2.9173,2.9172,2.9151,2.913,2.9144,2.9132,2.9109,2.9132,2.9114,2.9116,2.9138,2.9162,2.9166,2.917,2.9213,2.9222,2.923,0,0,0,0,0,0,2.9192,2.9172,2.9157,2.9184,2.918,2.9165,2.9181,2.9162,2.9164,2.9159,2.9133,2.9131,2.9155,2.9148,2.9128,2.9173,2.9143,2.9147,2.9175,2.9184,2.9191,2.9191,2.9089,0,0,0,0,0,2.9206,2.9215,2.9198,2.9224,2.9223,2.9203,2.9206,2.919,2.9185,2.9183,2.9173,2.9169,2.9175,2.9179,2.9184,2.9216,2.9212,2.9232,2.9239,2.9244,2.9248,2.9263,2.9271,2.9184,2.9184,2.9183,0,0,2.9235,2.9225,2.9233,2.9233,2.9228,2.9238,2.9201,2.9214,2.9221,2.9185,2.9203,2.9195,2.9189,2.9215,2.9226,2.921,2.9272,2.9249,2.9254,2.9254,2.9268,2.9276,2.9283,2.9186,2.9186,2.9185,0,0,2.9292,2.9286,2.9306,2.9302,2.9295,2.9281,2.9286,2.9274,2.9267,2.9285,2.9257,2.9266,2.9277,2.9273,2.9273,2.9329,2.9307,2.9331,2.9367,2.9382,2.9389,2.9395,2.9413,2.9421,2.9335,2.9335,2.9335,0,2.9328,2.9342,2.9319,2.9333,2.9334,2.9302,2.9322,2.9319,2.9314,2.9315,2.9298,2.9311,2.9305,2.9329,2.9342,2.9344,2.9348,2.9332,2.939,2.9396,2.9401,2.9418,2.9425,2.9338,2.9338,2.9338,2.9337,0,2.9387,2.9397,2.9414,2.941,2.9412,2.943,2.9409,2.9415,2.9399,2.9387,2.9405,2.9396,2.9398,2.9403,2.9388,2.9424,2.9415,2.9395,2.9364,2.9412,2.9428,2.9435,2.9342,2.9341,2.934,2.934,0,0,2.9473,2.9455,2.9462,2.9459,2.9449,2.9456,2.9472,2.9473,2.9478,2.9476,2.9488,2.9498,2.9479,2.9479,2.9463,2.9476,2.9519,2.9454,2.9453,2.9465,2.9557,2.9572,2.958,2.9505,2.9507,2.9508,2.9557,0,2.9526,2.9551,2.9531,2.9559,2.9568,2.9537,2.9551,2.9546,2.9536,2.9541,2.953,2.9537,2.9512,2.9511,2.9523,2.9511,2.9537,2.9508,2.9515,2.9516,2.9516,2.9588,2.9604,2.9651,2.9564,2.9565,2.9565,0,2.9591,2.9591,2.962,2.9607,2.961,2.9622,2.9622,2.9628,2.9622,2.9613,2.9613,2.9593,2.9607,2.9579,2.9597,2.9578,2.958,2.9574,2.9576,2.9574,2.9542,2.9587,2.9666,2.9672,2.9575,2.9574,2.9574,0,2.9649,2.9656,2.9674,2.9673,2.9659,2.9668,2.9663,2.9655,2.9657,2.9657,2.9658,2.9659,2.966,2.9662,2.9643,2.9624,2.9663,2.9634,2.9656,2.9656,2.9664,2.9664,2.9743,2.9669,2.9669,2.9668,2.9668,0,2.9709,2.9728,2.97,2.9711,2.9731,2.9708,2.9728,2.972,2.9713,2.9722,2.9697,2.9705,2.9681,2.9687,2.9672,2.9689,2.969,2.9683,2.9679,2.9684,2.9685,2.9684,2.968,2.967,2.967,2.9669,2.9669,0,2.9777,2.9759,2.9776,2.9762,2.9758,2.9774,2.9761,2.977,2.9758,2.9769,2.9771,2.9752,2.9758,2.9739,2.9743,2.9733,2.9757,2.9748,2.9759,2.9756,2.9778,2.9776,2.9858,2.9867,2.9789,2.979,2.979,0,2.9815,2.9829,2.9815,2.9819,2.9815,2.9821,2.9823,2.9801,2.9804,2.9798,2.9808,2.9811,2.9813,2.9824,2.981,2.9812,2.9802,2.9831,2.9802,2.9807,2.9801,2.98,2.9801,2.9837,2.9838,2.9838,2.9839,0,2.9886,2.9876,2.9879,2.988,2.9882,2.9881,2.9879,2.9883,2.986,2.9864,2.9869,2.9871,2.9874,2.9877,2.9876,2.9871,2.9851,2.9848,2.9853,2.9858,2.9864,2.986,2.9773,2.9846,2.9845,2.9845,2.9844,2.9844,2.9939,2.9949,2.9941,2.9945,2.9941,2.9939,2.9946,2.9935,2.9939,2.9939,2.9927,2.9934,2.9927,2.9924,2.9921,2.9926,2.9913,2.9921,2.9922,2.9924,2.9927,2.9864,2.9926,2.9926,2.9926,2.9926,2.9926,0,3.0006,2.9999,3.0004,3.0001,3.0004,2.9985,2.9981,2.9985,2.9992,2.9987,2.9989,2.9995,2.9999,2.9986,2.9987,2.9994,2.9985,2.9995,2.9994,2.9992,2.994,2.9935,3.0002,3.0002,3.0002,3.0002,3.0002,3.0002,3.0042,3.0058,3.0047,3.006,3.0053,3.0061,3.006,3.0058,3.0054,3.0061,3.0064,3.0055,3.0047,3.0047,3.005,3.0046,3.0047,3.006,3.0053,3.0004,2.9996,2.9989,2.9984,3.0061,3.0061,3.0104,3.0105,3.0105]}]]